• In Italy
  • List of Countries
  • For 7 days
  • Water Temperature
  • Satellite Maps
  • Weather Map
  • Weather Widgets
  • user-avatar
    Login

    Hourly Weather Agartala

    Today, 19 November, Sunday

    Time Temperature Precipitation Wind Pressure Humidity
    00:00 +23°C° 0 mm 0 mps 756 mmHg 87%
    01:00 +23°C° 0 mm 0 mps 756 mmHg 88%
    02:00 +23°C° 0 mm 0 mps 756 mmHg 88%
    03:00 +23°C° 0 mm 0 mps 755 mmHg 89%
    04:00 +23°C° 0 mm 0 mps 756 mmHg 90%
    05:00 +23°C° 0 mm 0 mps 756 mmHg 91%
    06:00 +24°C° 0 mm 1 mps 756 mmHg 91%
    07:00 +26°C° 0 mm 1 mps 757 mmHg 85%
    08:00 +27°C° 0 mm 1 mps 757 mmHg 79%
    09:00 +29°C° 0 mm 1 mps 757 mmHg 73%
    10:00 +30°C° 0 mm 1 mps 757 mmHg 68%
    11:00 +31°C° 0 mm 1 mps 757 mmHg 63%
    12:00 +32°C° 0 mm 1 mps 756 mmHg 61%
    13:00 +32°C° 0.2 mm 2 mps 756 mmHg 61%
    14:00 +32°C° 0.2 mm 2 mps 755 mmHg 62%
    15:00 +32°C° 0.2 mm 2 mps 755 mmHg 63%
    16:00 +30°C° 0 mm 2 mps 755 mmHg 67%
    17:00 +29°C° 0 mm 2 mps 755 mmHg 72%
    18:00 +28°C° 0 mm 1 mps 755 mmHg 76%
    19:00 +27°C° 0 mm 1 mps 756 mmHg 77%
    20:00 +27°C° 0 mm 1 mps 756 mmHg 78%
    21:00 +26°C° 0 mm 1 mps 756 mmHg 79%
    22:00 +26°C° 0 mm 1 mps 756 mmHg 79%
    23:00 +25°C° 0 mm 1 mps 756 mmHg 80%

    Tomorrow, 20 November, Monday

    Time Temperature Precipitation Wind Pressure Humidity
    00:00 +25°C° 0 mm 1 mps 756 mmHg 81%
    01:00 +24°C° 0 mm 1 mps 756 mmHg 82%
    02:00 +24°C° 0 mm 1 mps 756 mmHg 84%
    03:00 +24°C° 0 mm 1 mps 756 mmHg 85%
    04:00 +23°C° 0 mm 1 mps 756 mmHg 87%
    05:00 +23°C° 0 mm 1 mps 756 mmHg 88%
    06:00 +23°C° 0 mm 1 mps 756 mmHg 90%
    07:00 +25°C° 0 mm 1 mps 757 mmHg 84%
    08:00 +26°C° 0 mm 1 mps 757 mmHg 78%
    09:00 +28°C° 0 mm 1 mps 758 mmHg 72%
    10:00 +29°C° 0 mm 1 mps 757 mmHg 67%
    11:00 +31°C° 0 mm 2 mps 757 mmHg 61%
    12:00 +32°C° 0 mm 2 mps 756 mmHg 56%
    13:00 +32°C° 0 mm 2 mps 756 mmHg 54%
    14:00 +32°C° 0 mm 2 mps 755 mmHg 53%
    15:00 +33°C° 0 mm 3 mps 754 mmHg 51%
    16:00 +30°C° 0 mm 2 mps 754 mmHg 56%
    17:00 +28°C° 0 mm 2 mps 754 mmHg 60%
    18:00 +26°C° 0 mm 2 mps 755 mmHg 64%
    19:00 +26°C° 0 mm 2 mps 755 mmHg 65%
    20:00 +25°C° 0 mm 1 mps 756 mmHg 66%
    21:00 +24°C° 0 mm 1 mps 756 mmHg 67%
    22:00 +24°C° 0 mm 1 mps 756 mmHg 68%
    23:00 +23°C° 0 mm 1 mps 756 mmHg 69%

    Day after tomorrow, 21 November, Tuesday

    Time Temperature Precipitation Wind Pressure Humidity
    00:00 +23°C° 0 mm 1 mps 756 mmHg 71%
    01:00 +23°C° 0 mm 1 mps 756 mmHg 72%
    02:00 +22°C° 0 mm 1 mps 756 mmHg 74%
    03:00 +22°C° 0 mm 1 mps 756 mmHg 76%
    04:00 +22°C° 0 mm 1 mps 756 mmHg 77%
    05:00 +21°C° 0 mm 1 mps 756 mmHg 79%
    06:00 +21°C° 0 mm 1 mps 757 mmHg 80%
    07:00 +23°C° 0 mm 1 mps 757 mmHg 75%
    08:00 +25°C° 0 mm 1 mps 758 mmHg 70%
    09:00 +27°C° 0 mm 2 mps 759 mmHg 65%
    10:00 +28°C° 0 mm 2 mps 758 mmHg 58%
    11:00 +30°C° 0 mm 2 mps 757 mmHg 52%
    12:00 +31°C° 0 mm 3 mps 757 mmHg 46%
    13:00 +31°C° 0 mm 3 mps 756 mmHg 45%
    14:00 +31°C° 0 mm 2 mps 755 mmHg 44%
    15:00 +31°C° 0 mm 2 mps 755 mmHg 44%
    16:00 +29°C° 0 mm 2 mps 755 mmHg 48%
    17:00 +27°C° 0 mm 2 mps 755 mmHg 51%
    18:00 +24°C° 0 mm 1 mps 755 mmHg 55%
    19:00 +24°C° 0 mm 1 mps 756 mmHg 55%
    20:00 +23°C° 0 mm 1 mps 756 mmHg 55%
    21:00 +22°C° 0 mm 1 mps 757 mmHg 54%
    22:00 +21°C° 0 mm 1 mps 757 mmHg 55%
    23:00 +21°C° 0 mm 1 mps 757 mmHg 55%

    22 November, Wednesday

    Time Temperature Precipitation Wind Pressure Humidity
    00:00 +20°C° 0 mm 1 mps 757 mmHg 55%
    01:00 +19°C° 0 mm 1 mps 757 mmHg 56%
    02:00 +19°C° 0 mm 1 mps 756 mmHg 56%
    03:00 +18°C° 0 mm 1 mps 756 mmHg 57%
    04:00 +18°C° 0 mm 1 mps 756 mmHg 58%
    05:00 +16°C° 0 mm 1 mps 756 mmHg 59%
    06:00 +15°C° 0 mm 0 mps 756 mmHg 60%
    07:00 +19°C° 0 mm 1 mps 757 mmHg 57%
    08:00 +21°C° 0 mm 1 mps 757 mmHg 54%
    09:00 +23°C° 0 mm 1 mps 758 mmHg 51%
    10:00 +25°C° 0 mm 1 mps 757 mmHg 46%
    11:00 +26°C° 0 mm 1 mps 756 mmHg 41%
    12:00 +28°C° 0 mm 1 mps 756 mmHg 37%
    13:00 +28°C° 0 mm 1 mps 755 mmHg 37%
    14:00 +28°C° 0 mm 1 mps 754 mmHg 37%
    15:00 +28°C° 0 mm 1 mps 754 mmHg 37%
    16:00 +26°C° 0 mm 1 mps 754 mmHg 42%
    17:00 +24°C° 0 mm 1 mps 754 mmHg 46%
    18:00 +19°C° 0 mm 0 mps 754 mmHg 50%
    19:00 +19°C° 0 mm 0 mps 755 mmHg 51%
    20:00 +18°C° 0 mm 0 mps 756 mmHg 52%
    21:00 +18°C° 0 mm 0 mps 757 mmHg 54%
    22:00 +17°C° 0 mm 0 mps 756 mmHg 55%
    23:00 +17°C° 0 mm 0 mps 756 mmHg 57%

    23 November, Thursday

    Time Temperature Precipitation Wind Pressure Humidity
    00:00 +17°C° 0 mm 0 mps 756 mmHg 58%
    01:00 +16°C° 0 mm 0 mps 756 mmHg 60%
    02:00 +18°C° 0 mm 1 mps 756 mmHg 61%
    03:00 +18°C° 0 mm 1 mps 756 mmHg 63%
    04:00 +16°C° 0 mm 1 mps 756 mmHg 65%
    05:00 +16°C° 0 mm 1 mps 756 mmHg 67%
    06:00 +16°C° 0 mm 1 mps 756 mmHg 68%
    07:00 +19°C° 0 mm 1 mps 757 mmHg 65%
    08:00 +21°C° 0 mm 1 mps 757 mmHg 61%
    09:00 +23°C° 0 mm 1 mps 758 mmHg 57%
    10:00 +25°C° 0 mm 1 mps 757 mmHg 53%
    11:00 +27°C° 0 mm 1 mps 756 mmHg 48%
    12:00 +28°C° 0 mm 2 mps 756 mmHg 44%
    13:00 +28°C° 0 mm 1 mps 755 mmHg 44%
    14:00 +28°C° 0 mm 1 mps 755 mmHg 43%
    15:00 +29°C° 0 mm 1 mps 754 mmHg 43%
    16:00 +27°C° 0 mm 1 mps 754 mmHg 49%
    17:00 +24°C° 0 mm 1 mps 755 mmHg 55%
    18:00 +20°C° 0 mm 0 mps 755 mmHg 60%
    19:00 +20°C° 0 mm 0 mps 756 mmHg 61%
    20:00 +19°C° 0 mm 0 mps 756 mmHg 63%
    21:00 +19°C° 0 mm 0 mps 757 mmHg 64%
    22:00 +18°C° 0 mm 0 mps 757 mmHg 66%
    23:00 +18°C° 0 mm 0 mps 756 mmHg 67%

    24 November, Friday

    Time Temperature Precipitation Wind Pressure Humidity
    00:00 +17°C° 0 mm 0 mps 756 mmHg 69%
    01:00 +19°C° 0 mm 1 mps 756 mmHg 71%
    02:00 +19°C° 0 mm 1 mps 756 mmHg 73%
    03:00 +18°C° 0 mm 1 mps 756 mmHg 75%
    04:00 +18°C° 0 mm 1 mps 756 mmHg 77%
    05:00 +18°C° 0 mm 1 mps 756 mmHg 78%
    06:00 +15°C° 0 mm 0 mps 756 mmHg 80%
    07:00 +18°C° 0 mm 0 mps 757 mmHg 73%
    08:00 +20°C° 0 mm 0 mps 757 mmHg 67%
    09:00 +22°C° 0 mm 0 mps 758 mmHg 60%
    10:00 +26°C° 0 mm 1 mps 757 mmHg 56%
    11:00 +27°C° 0 mm 1 mps 757 mmHg 51%
    12:00 +29°C° 0 mm 1 mps 756 mmHg 46%
    13:00 +29°C° 0 mm 1 mps 756 mmHg 46%
    14:00 +29°C° 0 mm 1 mps 755 mmHg 45%
    15:00 +29°C° 0 mm 1 mps 755 mmHg 44%
    16:00 +27°C° 0 mm 1 mps 755 mmHg 50%
    17:00 +25°C° 0 mm 1 mps 755 mmHg 56%
    18:00 +20°C° 0 mm 0 mps 756 mmHg 61%
    19:00 +20°C° 0 mm 0 mps 756 mmHg 63%
    20:00 +19°C° 0 mm 0 mps 757 mmHg 65%
    21:00 +19°C° 0 mm 0 mps 757 mmHg 66%
    22:00 +18°C° 0 mm 0 mps 757 mmHg 68%
    23:00 +18°C° 0 mm 0 mps 757 mmHg 69%
    Show more